Wind_Speed
8 9 10 10 10 10 11 11 12 12 12 12 13 13 13 13 14 14 15 16 16 17 17 17 17 16 14 13 12 11 9 9 8 7 6 5 5 5 4 4 3 2 2
9 10 11 11 11 12 12 13 13 14 14 15 15 15 15 15 16 16 16 16 17 18 18 18 17 17 16 15 14 12 11 10 9 8 7 6 5 5 4 4 3 2 2
10 11 11 12 12 13 14 14 14 15 15 16 17 17 17 17 17 17 18 18 18 19 19 19 18 18 17 16 15 14 12 11 10 9 8 6 6 5 4 4 3 2 2
11 11 11 12 13 14 14 15 16 16 16 17 17 18 18 18 19 20 20 20 20 20 20 20 19 19 18 18 17 15 14 12 11 9 8 7 6 5 5 4 3 3 3
11 12 12 13 13 14 15 16 17 18 18 18 18 18 19 19 20 21 21 21 21 21 21 21 20 20 19 18 18 16 15 14 12 11 9 7 7 5 5 4 3 3 3
12 12 13 13 14 15 16 17 18 18 19 19 19 19 19 20 21 21 21 22 22 22 22 22 21 20 20 19 18 18 17 15 13 12 10 9 7 6 5 4 4 3 3
13 13 14 15 15 16 16 17 17 18 19 20 20 20 21 21 21 22 21 22 23 23 23 23 22 21 21 21 20 19 18 17 15 13 12 10 9 7 6 5 5 4 4
12 13 14 14 15 16 17 17 17 18 19 20 20 21 21 22 23 24 23 22 23 24 24 24 23 23 23 23 21 20 19 19 17 15 13 12 10 8 7 6 6 5 5
12 12 13 14 15 15 16 17 17 17 18 19 19 20 21 22 23 24 24 25 24 24 25 25 24 23 24 24 23 22 20 19 19 17 16 14 12 10 9 8 7 6 6
11 12 12 13 14 14 15 16 16 17 17 17 18 19 20 21 22 23 24 24 26 25 25 25 25 24 24 24 24 23 22 20 20 18 17 16 14 12 10 9 9 8 7
11 11 11 12 13 14 14 15 16 16 17 17 17 18 19 20 21 22 22 23 24 25 26 25 25 26 24 24 25 24 23 22 20 19 19 18 16 14 12 11 10 10 8
10 10 11 13 14 15 16 16 16 16 16 17 17 17 18 19 20 21 21 21 23 24 25 25 25 26 26 25 25 25 25 24 22 21 20 20 18 17 15 13 12 11 10
9 10 12 14 15 16 17 17 17 17 17 17 17 17 17 18 19 19 20 20 21 22 22 23 24 25 26 25 25 25 25 25 24 23 22 21 20 19 17 15 14 13 12
9 11 13 14 16 16 17 18 18 18 18 17 17 17 17 18 18 19 19 19 20 21 21 22 22 24 25 25 25 25 25 24 25 23 23 22 21 21 19 17 16 15 14
9 11 13 15 15 16 17 18 18 18 18 18 18 18 18 18 18 18 19 19 19 20 21 22 22 23 24 25 25 25 26 26 26 25 24 23 23 23 22 19 18 16 15
10 12 13 14 15 17 18 18 18 18 19 19 19 19 19 19 19 18 18 18 18 18 19 21 22 23 24 25 25 25 26 27 27 26 25 25 25 24 24 22 20 18 16
11 12 13 15 16 17 18 18 19 19 19 19 19 19 19 19 19 18 18 18 18 17 17 19 20 21 23 24 25 26 26 26 27 28 27 25 26 26 25 23 21 20 19
11 12 14 15 16 17 18 19 19 19 19 19 19 19 19 19 19 18 17 17 17 17 17 17 18 20 21 22 23 25 26 26 26 28 27 26 26 26 26 25 23 22 20
10 12 13 14 16 17 18 18 19 19 19 20 20 19 19 19 19 17 16 16 16 16 16 16 17 18 19 21 22 23 25 26 26 27 28 26 27 27 27 26 24 23 22
10 12 13 14 16 17 18 18 19 19 20 20 20 20 19 19 18 16 15 14 14 14 14 15 15 16 18 19 20 21 23 24 24 25 27 26 26 27 27 27 25 24 23
10 11 13 14 15 17 18 19 19 20 20 21 21 20 19 18 17 15 13 13 13 13 13 14 14 15 16 17 19 20 22 23 24 24 26 28 27 28 28 27 27 25 24
9 10 12 14 15 17 18 19 19 20 20 21 21 20 19 18 17 15 13 12 11 11 11 11 11 13 14 16 18 19 21 23 23 24 24 27 27 28 28 27 28 27 25
9 10 12 14 16 17 19 19 20 20 21 21 21 20 19 18 16 15 13 11 10 10 10 10 9 10 12 14 16 18 20 21 22 23 24 25 28 28 29 28 28 28 27
8 10 12 14 16 17 18 19 19 20 21 21 21 20 19 18 17 15 14 12 10 9 9 8 8 9 10 12 14 16 17 19 20 21 22 24 26 28 29 29 29 29 28
9 10 11 13 15 17 18 19 19 20 21 21 21 21 19 18 17 15 14 12 11 10 8 7 7 7 9 10 12 14 16 16 18 19 21 23 25 26 27 28 29 30 29
9 10 11 13 15 16 18 19 19 20 20 21 21 21 20 19 17 16 14 12 11 9 8 7 6 6 7 9 11 13 14 15 17 19 19 21 23 25 26 27 28 29 31
Wind_Direction
289 291 292 287 284 279 276 275 274 271 268 263 259 260 261 261 257 253 252 250 248 245 243 245 246 247 248 252 256 260 263 270 279 282 285 288 294 301 304 302 301 304 309
290 291 292 289 286 279 277 277 277 276 273 267 263 262 262 262 257 256 256 253 251 249 247 246 245 246 248 250 253 256 258 263 270 273 277 282 286 292 295 291 285 283 284
293 293 291 290 288 284 281 279 278 276 276 272 265 263 262 262 260 259 257 254 253 252 251 249 248 246 248 248 249 251 254 257 262 264 266 272 279 282 282 276 268 263 266
295 294 291 291 290 290 287 284 280 279 278 275 270 266 264 264 263 260 258 256 254 254 254 252 251 249 248 247 245 246 249 253 255 257 257 262 271 272 268 261 250 246 241
295 295 295 293 292 291 291 288 284 284 282 278 275 273 270 266 265 263 262 258 256 255 255 253 251 249 248 246 243 244 246 248 250 252 252 255 260 260 255 247 241 237 231
295 296 299 297 296 295 296 294 291 286 284 281 276 273 272 271 270 266 264 262 259 257 256 254 251 248 246 246 243 242 242 243 244 247 247 248 251 251 245 239 232 224 221
299 298 300 301 301 300 299 296 293 290 288 285 279 275 272 272 270 268 265 262 260 259 258 255 251 249 246 245 244 243 242 241 242 243 242 244 245 244 238 232 225 217 208
305 304 305 305 305 305 304 301 296 293 290 286 282 278 275 273 272 268 265 263 261 261 257 255 253 250 247 245 244 243 241 240 239 238 238 239 240 236 232 227 222 214 208
310 312 313 313 313 314 313 310 306 302 297 291 286 282 279 277 274 272 268 264 262 261 258 255 254 251 249 248 245 242 241 240 236 235 235 236 236 234 230 227 218 211 208
318 321 322 323 323 322 320 318 314 308 303 299 294 289 284 279 278 276 272 268 265 262 260 257 253 250 248 247 244 243 241 239 235 233 233 233 233 232 229 224 217 213 208
320 325 329 332 332 332 330 326 321 317 311 306 301 295 290 286 282 279 275 270 266 264 262 259 254 248 247 245 243 241 240 237 235 234 233 232 231 230 228 224 218 214 211
325 332 336 338 338 336 334 331 327 324 318 314 309 303 297 292 288 285 280 274 269 265 263 259 254 249 245 243 241 239 237 236 235 234 232 231 229 228 227 225 219 215 211
335 339 341 341 340 337 336 335 331 327 322 317 313 309 304 298 292 288 284 279 274 268 265 261 254 250 246 242 240 237 235 234 235 233 230 229 229 225 224 224 220 215 211
340 342 342 341 341 340 338 337 333 329 325 321 317 313 309 304 298 292 287 282 276 270 265 261 255 250 246 242 240 236 233 232 231 229 227 227 227 223 223 222 220 216 214
341 342 342 341 342 341 340 338 336 333 330 324 319 315 312 307 301 295 289 284 278 271 266 262 258 252 249 244 240 237 233 231 230 227 227 227 226 222 222 222 220 219 217
342 344 344 344 343 342 341 340 339 337 334 329 324 319 315 311 305 299 293 286 279 274 268 264 258 253 250 245 241 236 232 230 228 228 227 228 225 221 218 218 219 219 218
342 344 345 345 344 343 342 342 341 338 336 333 329 325 320 315 309 301 295 289 282 276 271 265 259 255 251 247 240 236 232 230 229 227 225 226 224 220 217 217 219 220 219
339 342 344 345 346 345 343 343 342 341 338 336 333 329 325 320 314 306 298 291 285 279 273 267 260 254 251 246 241 236 232 231 228 227 226 225 222 219 218 218 219 219 220
337 341 343 346 347 346 346 345 343 343 342 339 336 333 329 325 320 312 301 293 289 283 276 269 262 255 249 244 240 235 231 230 228 227 226 226 223 221 219 217 218 219 220
336 340 343 345 347 348 348 347 346 345 344 342 339 336 333 330 326 318 306 298 292 285 279 272 264 256 248 243 237 234 230 227 227 226 224 225 224 221 219 219 220 219 219
335 340 343 346 348 348 349 348 347 347 345 344 344 341 338 335 333 328 318 307 299 291 284 276 266 255 247 241 234 231 228 225 226 225 224 223 224 222 221 222 223 222 222
338 343 345 347 349 349 350 350 349 349 348 347 346 345 343 339 336 332 328 319 309 299 292 282 269 254 246 240 234 230 226 223 224 224 224 223 222 221 220 222 224 224 224
337 341 344 346 348 349 350 350 350 350 350 349 348 347 346 344 341 338 335 330 321 309 300 289 273 256 247 240 234 229 227 226 225 223 223 222 222 222 220 222 223 224 225
331 337 340 343 346 348 350 351 352 352 351 350 350 349 347 347 345 343 340 335 328 320 312 298 277 260 249 241 233 227 225 227 227 226 224 223 224 223 222 224 224 225 225
325 331 337 341 345 347 350 352 352 353 353 353 353 353 351 349 349 347 344 339 333 323 315 303 281 263 251 242 233 229 226 226 227 227 224 224 224 223 224 224 225 226 226
321 328 334 338 343 346 350 352 353 353 354 355 356 356 355 353 352 350 347 343 340 333 323 312 292 271 253 242 234 230 227 226 230 229 226 226 225 225 226 226 227 226 225
Height
5868 5867 5867 5866 5866 5866 5866 5865 5865 5865 5865 5865 5865 5865 5865 5865 5866 5866 5866 5867 5868 5868 5869 5870 5870 5871 5871 5872 5872 5872 5872 5871 5871 5871 5870 5870 5870 5870 5869 5869 5869 5868 5868
5866 5866 5865 5865 5864 5864 5864 5863 5863 5863 5863 5863 5863 5863 5863 5863 5863 5864 5864 5865 5865 5866 5866 5867 5868 5868 5869 5870 5870 5870 5870 5870 5870 5870 5869 5869 5869 5869 5869 5868 5868 5868 5868
5865 5864 5864 5863 5862 5862 5861 5861 5861 5861 5860 5860 5860 5860 5860 5861 5861 5861 5861 5862 5862 5863 5864 5864 5865 5866 5866 5867 5868 5868 5868 5868 5868 5868 5868 5868 5868 5868 5868 5868 5868 5868 5868
5863 5862 5862 5861 5860 5860 5859 5859 5858 5858 5858 5857 5857 5858 5858 5858 5858 5858 5858 5859 5859 5860 5861 5861 5862 5863 5863 5864 5865 5866 5866 5866 5867 5867 5867 5867 5867 5867 5867 5867 5867 5867 5867
5862 5861 5860 5859 5858 5857 5857 5856 5855 5855 5855 5854 5854 5854 5854 5854 5855 5855 5855 5855 5856 5856 5857 5858 5859 5860 5860 5861 5862 5863 5864 5864 5865 5865 5865 5866 5866 5866 5866 5867 5867 5867 5867
5860 5859 5858 5857 5856 5855 5854 5853 5853 5852 5851 5851 5851 5851 5850 5850 5850 5851 5851 5851 5852 5852 5853 5854 5855 5856 5857 5858 5859 5860 5861 5862 5863 5864 5864 5865 5865 5865 5866 5866 5866 5867 5867
5858 5857 5856 5854 5853 5852 5851 5850 5849 5849 5848 5847 5847 5846 5846 5846 5846 5846 5846 5847 5847 5848 5849 5850 5851 5852 5854 5855 5856 5857 5859 5860 5861 5862 5863 5863 5864 5864 5865 5865 5866 5866 5867
5856 5855 5853 5852 5851 5850 5848 5847 5846 5845 5844 5843 5842 5842 5841 5841 5841 5841 5841 5841 5842 5843 5844 5845 5847 5848 5850 5851 5853 5854 5855 5857 5858 5859 5861 5862 5862 5863 5864 5865 5865 5866 5866
5854 5852 5851 5850 5848 5847 5845 5844 5843 5841 5840 5839 5838 5837 5837 5836 5836 5836 5836 5836 5837 5838 5839 5840 5842 5843 5845 5847 5849 5850 5852 5854 5855 5857 5858 5860 5861 5862 5862 5864 5864 5865 5866
5852 5850 5849 5848 5846 5845 5843 5841 5839 5838 5836 5835 5834 5833 5832 5831 5831 5830 5830 5831 5832 5832 5833 5835 5836 5838 5840 5842 5844 5846 5848 5850 5852 5854 5856 5857 5859 5860 5861 5862 5863 5864 5866
5850 5849 5847 5846 5844 5842 5841 5839 5836 5835 5833 5831 5830 5828 5827 5827 5826 5825 5825 5825 5826 5827 5828 5829 5831 5833 5835 5837 5839 5842 5844 5846 5849 5851 5853 5855 5856 5858 5859 5861 5862 5863 5865
5849 5847 5846 5844 5842 5840 5838 5836 5834 5832 5830 5828 5826 5825 5823 5822 5821 5820 5820 5820 5820 5821 5822 5823 5825 5827 5830 5832 5834 5837 5840 5842 5845 5847 5850 5852 5853 5855 5857 5859 5861 5862 5864
5847 5846 5844 5843 5841 5838 5836 5834 5832 5829 5827 5825 5823 5821 5820 5818 5817 5816 5815 5815 5815 5815 5816 5817 5819 5821 5824 5826 5829 5832 5835 5838 5841 5843 5846 5848 5850 5853 5855 5857 5859 5861 5862
5846 5845 5843 5841 5839 5837 5834 5832 5829 5827 5824 5822 5820 5818 5816 5814 5812 5811 5810 5810 5810 5810 5811 5812 5813 5816 5818 5821 5824 5827 5830 5833 5836 5839 5841 5844 5847 5850 5852 5854 5857 5859 5861
5845 5844 5842 5840 5838 5835 5833 5830 5827 5824 5822 5819 5817 5814 5812 5810 5808 5807 5806 5805 5805 5805 5805 5806 5808 5810 5812 5815 5818 5821 5824 5828 5831 5834 5837 5840 5843 5846 5849 5852 5854 5857 5859
5844 5843 5841 5839 5836 5834 5831 5828 5825 5822 5819 5816 5813 5810 5808 5806 5804 5802 5801 5800 5799 5799 5800 5801 5802 5804 5806 5809 5812 5815 5819 5822 5826 5829 5832 5835 5839 5842 5845 5849 5851 5854 5857
5843 5842 5840 5838 5835 5833 5830 5826 5823 5820 5817 5813 5810 5807 5804 5801 5799 5797 5796 5795 5795 5794 5795 5795 5796 5798 5800 5803 5806 5809 5813 5816 5820 5824 5827 5831 5834 5838 5842 5845 5848 5851 5854
5843 5841 5839 5836 5834 5831 5828 5825 5821 5818 5815 5811 5808 5804 5801 5798 5795 5793 5791 5790 5790 5789 5790 5790 5791 5792 5794 5797 5800 5803 5807 5811 5815 5818 5822 5826 5830 5834 5838 5841 5845 5848 5851
5842 5840 5838 5836 5833 5830 5827 5823 5820 5816 5813 5809 5805 5801 5798 5794 5791 5788 5787 5786 5785 5785 5785 5785 5786 5787 5789 5791 5794 5798 5801 5805 5809 5813 5817 5821 5825 5829 5834 5837 5841 5844 5848
5841 5839 5837 5835 5832 5829 5826 5822 5819 5815 5811 5807 5803 5799 5795 5791 5788 5785 5783 5782 5781 5780 5780 5780 5781 5782 5784 5786 5789 5793 5796 5800 5804 5808 5812 5817 5821 5825 5829 5833 5837 5841 5844
5839 5838 5836 5834 5831 5828 5825 5821 5817 5814 5810 5805 5801 5797 5793 5789 5785 5782 5780 5779 5778 5777 5776 5776 5776 5778 5779 5782 5785 5788 5792 5795 5799 5803 5807 5812 5816 5820 5824 5829 5833 5836 5840
5838 5837 5835 5833 5830 5827 5824 5820 5816 5812 5808 5804 5799 5795 5791 5787 5784 5781 5778 5776 5775 5774 5773 5772 5773 5774 5775 5778 5780 5783 5787 5791 5794 5799 5803 5807 5811 5815 5820 5824 5828 5832 5836
5837 5836 5834 5832 5829 5826 5823 5819 5815 5811 5807 5803 5798 5794 5790 5786 5782 5779 5777 5774 5773 5771 5770 5770 5770 5771 5772 5774 5776 5780 5783 5786 5790 5794 5798 5802 5807 5811 5815 5818 5823 5828 5832
5836 5835 5833 5831 5828 5825 5822 5818 5814 5810 5806 5802 5798 5793 5789 5785 5781 5778 5775 5773 5771 5770 5768 5767 5767 5768 5769 5771 5773 5776 5779 5782 5786 5790 5794 5797 5801 5806 5810 5814 5819 5822 5826
5835 5834 5832 5830 5827 5824 5821 5818 5814 5810 5806 5801 5797 5792 5788 5784 5781 5777 5774 5772 5770 5768 5767 5766 5765 5765 5767 5768 5770 5773 5776 5779 5782 5786 5790 5793 5797 5801 5805 5809 5813 5817 5820
5834 5833 5831 5829 5827 5824 5820 5817 5813 5809 5805 5801 5797 5792 5788 5784 5780 5777 5773 5771 5768 5766 5765 5764 5763 5763 5764 5766 5768 5770 5773 5776 5779 5782 5786 5789 5793 5796 5800 5804 5808 5812 5814